Location: Ferchesar
(52.6477°N, 12.4298°E)
Time: 05:36:18
(UTC+01:00)

Vanguard 2 Rocket - Pass Details

Date: 07 December 2021
Orbit: 553 x 3325 km, 32.9° (Epoch: 25 January)

Event Time Altitude Azimuth Distance (km) Brightness Sun altitude
Rises 22:20:22 0° 250° (WSW) 4,386 10.6 -54.3°
Enters shadow 22:20:59 - 247° (WSW) 4,297 10.5 -54.4°
Reaches altitude 10° 22:25:11 10° 225° (SW) 3,959 - -54.8°
Maximum altitude 22:29:43 13° 200° (SSW) 4,158 - -55.3°
Drops below altitude 10° 22:35:12 10° 176° (S) 4,974 - -55.8°
Sets 22:43:12 0° 155° (SSE) 6,617 - -56.5°
